Regional Weather Roundup
Issued by NWS

Home | Current Version | Previous Version | Text Only | Print | Product List | Glossary Off
Versions: 1 2 3 4 5 6 7 8 9 10 11 12 13 14 15 16 17 18 19 20 21 22 23 24 25 26 27 28 29 30 31 32 33 34 35 36 37 38 39 40 41 42 43 44 45 46 47 48 49 50

000
ASUS43 KOAX 281610
RWRNE

WEATHER ROUNDUP FOR NEBRASKA
NATIONAL WEATHER SERVICE OMAHA NE
1100 AM CDT THU JUL 28 2016

NOTES: SATELLITE DATA IS BEING USED TO AUGMENT CLOUD COVER ABOVE
       12000 FEET.
       "FAIR" INDICATES FEW OR NO CLOUDS BELOW 12,000 FEET WITH NO
       SIGNIFICANT WEATHER AND/OR OBSTRUCTIONS TO VISIBILITY.

  * THESE STATIONS DO NOT REPORT WEATHER SUCH AS RAIN...SNOW OR FOG.

NEZ001>004-019>022-054>056-281700-
NEBRASKA PANHANDLE

CITY           SKY/WX    TMP DP  RH WIND       PRES   REMARKS
SCOTTSBLUFF    LGT RAIN  61  32  33 NE8       30.24R
ALLIANCE       TSTM      58  56  93 S9        30.19R
CHADRON        LGT RAIN  62  58  86 W16G24    30.23R
KIMBALL        PTSUNNY   68  60  76 E6        30.21S
SIDNEY         CLOUDY    65  61  87 E15       30.18S
$$

NEZ057>060-069>072-079>082-281700-
SOUTHWEST NEBRASKA

CITY           SKY/WX    TMP DP  RH WIND       PRES   REMARKS
NORTH PLATTE   LGT RAIN  64  60  87 W8        30.10
IMPERIAL       CLOUDY    68  63  84 NE13      30.14R
LEXINGTON      PTSUNNY   70  64  81 NW7       30.14S
MCCOOK         PTSUNNY   75  62  64 NE10      30.09F
OGALLALA       PTSUNNY   69  60  73 E9        30.11S
$$

NEZ005>010-023>029-035>040-094-281700-
NORTH CENTRAL NEBRASKA

CITY           SKY/WX    TMP DP  RH WIND       PRES   REMARKS
VALENTINE      CLOUDY    68  62  81 SE7       30.13R
AINSWORTH      PTSUNNY   66  65  94 SE8       30.12F
BROKEN BOW     CLOUDY    69  65  86 NW3       30.13F
O`NEILL        MOSUNNY   73  62  68 E3        30.10F
ORD            CLOUDY    74  64  71 VRB3      30.09F
THEDFORD       CLOUDY    67  62  83 NE14      30.09R
$$

NEZ041-046>049-061>064-073>077-083>087-281700-
SOUTH CENTRAL NEBRASKA

CITY           SKY/WX    TMP DP  RH WIND       PRES   REMARKS
GRAND ISLAND   SUNNY     77  65  66 NE6       30.08F
AURORA         MOSUNNY   77  69  75 N5        30.08S
HASTINGS       SUNNY     76  67  73 NE8       30.09S
HEBRON         MOSUNNY   79  66  65 NE5       30.05R
HOLDREGE       MOSUNNY   74  65  74 N6        30.10R
KEARNEY *      MOSUNNY   79  18  10 NE6       30.10F
YORK           MOSUNNY   77  68  73 NE9       30.07F
$$

NEZ011>018-030>034-042>045-281700-
NORTHEAST NEBRASKA

CITY           SKY/WX    TMP DP  RH WIND       PRES   REMARKS
NORFOLK        CLOUDY    75  61  61 NW6       30.08S
ALBION         CLOUDY    74  63  68 CALM      30.10S
BLAIR          SUNNY     77  67  70 N5        30.04F
FREMONT        MOSUNNY   77  65  65 CALM      30.05S
TEKAMAH        MOSUNNY   79  66  64 N9        30.03F
WAYNE          SUNNY     76  62  62 CALM      30.07S
$$

NEZ050>053-065>068-078-088>093-281700-
SOUTHEAST NEBRASKA

CITY           SKY/WX    TMP DP  RH WIND       PRES   REMARKS
LINCOLN        SUNNY     80  67  64 N7        30.05S
OMAHA EPPLEY   MOSUNNY   79  68  69 N10       30.02F
BEATRICE       MOSUNNY   79  69  70 N7        30.03S
FALLS CITY     SUNNY     82  71  69 NE7       29.99F
NEBRASKA CITY  SUNNY     78  68  71 NE9       30.02S
PLATTSMOUTH    SUNNY     79  67  66 N6        30.03S
$$

NEZ044-045-051>053-067-281700-
OMAHA AREA

CITY           SKY/WX    TMP DP  RH WIND       PRES   REMARKS
OMAHA EPPLEY   MOSUNNY   79  68  69 N10       30.02F
BLAIR          SUNNY     77  67  70 N5        30.04F
FREMONT        MOSUNNY   77  65  65 CALM      30.05S
MILLARD        SUNNY     78  65  64 N3        30.02F
OFFUTT AFB     SUNNY     79  65  61 N10       30.02
PLATTSMOUTH    SUNNY     79  67  66 N6        30.03S
WAHOO          FAIR      78  67  68 NE6       30.05S
$$



USA.gov is the U.S. government's official web portal to all federal, state and local government web resources and services.